Погода в Пупках

Россия / Рязанская область     53°46′36″N   39°27′58″E
темп.,
°C
ветер,
м/с
пор.,
м/с
влажн.,
%
обл.,
%
осадки,
мм/ч
давл.,
гПа
погр.,
м
26 октября, вт
вт2600:00−1юз49725 0.0 1031191
03:00−1зюз511715 0.0 1030259
06:00−1зюз51372100 0.0 1029305
09:00+1зюз61364100 0.0 1028380
12:00+5зюз71250100 0.0 1027564
15:00+6юз71352100 0.0 1026622
18:00+4юз61458100 0.0 1026426
21:00+3юз6155990 0.0 1025417
27 октября, ср
ср2700:00+3юз6156196 0.0 1024398
03:00+2юз61462100 0.0 1023377
06:00+2юз61464100 0.0 1022366
09:00+3юз71663100 0.0 1020483
12:00+7юз81555100 0.0 1018740
15:00+8юз81458100 0.0 10161034
18:00+7зюз81368100 0.0 10161019
21:00+6з7138085 0.0 1016643
28 октября, чт
чт2800:00+6з51183100 0.0 1017424
03:00+6зюз51082100 0.0 1017403
06:00+4зюз51191100 0.0 1017327
09:00+5юз5118573 0.0 1016352
12:00+6юз61388100 0.2 1015581
15:00+7зюз61392100 0.3 1013517
18:00+7з61394100 0.3 1014509
21:00+9зсз61293100 0.4 1015536
29 октября, пт
пт2900:00+8сз51290100 0.0 1016440
03:00+8ссз61087100 0.1 1019749
06:00+6ссв5985100 0.1 1022555
09:00+6ссв478135 0.1 1026690
12:00+6ссв446745 0.0 1028863
15:00+6св33595 0.0 1030721
18:00+3в23545 0.0 103241
21:00+2ююв22575 0.0 103325
30 октября, сб
сб3000:00+1ююз34645 0.0 103372
03:00+2юз48745 0.0 1033182
06:00+2юз49905 0.0 1033167
09:00+4юз410835 0.0 1033263
12:00+9зюз58635 0.0 1033427
15:00+10юз59605 0.0 1032522
18:00+6юз4107539 0.0 1032197
21:00+6юз5117769 0.0 1032230